Theta_e
325 324 323 323 322 321 320 320 320 320 320 320 320 320 320 320 320 320 320 320 321 320 320 320 321 322 316 306 307 326 345 344 330 316 311 308 305 303 299 302 308 309 314 316 323 323 322
325 325 324 323 322 321 320 320 320 320 320 319 320 320 320 320 320 320 319 319 319 319 319 320 321 322 315 304 314 331 327 318 316 313 311 309 308 306 301 303 303 312 315 316 320 319 320
322 323 324 323 322 321 321 321 320 320 319 319 319 319 319 320 320 320 318 317 317 317 319 320 322 321 313 304 318 322 316 311 312 313 310 311 311 305 304 302 304 316 312 315 315 316 318
319 320 321 322 322 322 321 321 321 320 320 319 319 319 319 319 319 319 318 317 316 318 320 322 323 318 303 316 318 315 312 310 312 312 311 311 307 302 302 303 314 311 310 305 311 315 317
317 319 319 320 321 322 321 321 320 320 320 320 319 318 319 319 318 317 316 316 317 319 323 324 315 309 304 321 313 314 314 308 309 309 310 314 306 301 303 302 304 308 302 304 310 315 314
316 318 319 320 320 320 321 321 320 320 320 320 319 318 317 316 316 316 315 315 317 318 321 322 319 306 308 311 314 314 314 310 307 306 305 304 300 298 297 300 298 302 304 304 305 311 312
315 316 318 318 319 319 319 321 321 320 320 320 319 316 315 315 315 314 312 307 301 300 308 304 304 307 311 314 318 313 315 311 307 303 297 300 296 294 298 300 305 308 306 306 306 314 310
314 315 316 316 316 316 318 318 318 318 318 316 315 315 314 314 314 314 309 305 306 304 298 306 306 308 312 312 308 313 315 307 303 298 299 298 294 299 301 302 306 307 305 303 308 313 310
313 314 315 314 314 315 315 315 315 315 315 314 313 313 314 314 313 309 306 308 311 307 296 302 306 305 305 308 306 308 312 307 301 296 296 294 299 303 302 300 301 303 304 304 305 310 311
312 313 313 313 313 314 313 313 313 313 313 313 313 313 313 312 307 305 306 312 312 309 293 298 303 305 306 309 306 312 313 307 300 298 297 295 301 302 300 300 301 296 305 307 307 304 298
311 311 312 313 313 313 312 312 312 312 313 312 312 313 312 311 304 304 309 312 312 304 282 301 304 309 306 304 306 308 311 306 299 300 298 296 298 298 298 301 303 300 304 303 303 303 300
310 310 310 312 313 313 313 312 312 312 312 312 312 312 311 308 304 307 311 310 302 293 286 301 303 300 300 304 305 306 306 306 305 298 298 298 300 300 300 303 304 305 301 297 295 293 290
309 309 309 310 311 311 312 312 312 311 311 311 311 310 308 308 303 308 308 302 290 287 299 301 298 299 299 300 302 303 300 297 295 291 291 297 296 299 303 298 299 299 294 287 286 285 287
309 308 309 309 311 311 311 311 311 311 311 311 309 308 306 308 307 308 305 296 285 293 296 304 303 299 296 300 300 301 297 295 296 295 292 290 289 297 301 299 296 295 294 288 283 284 287
309 308 308 308 309 309 310 310 310 310 310 309 307 303 304 308 310 308 298 288 289 295 301 299 300 295 295 299 299 299 297 295 298 297 292 290 292 301 301 301 300 294 292 296 290 289 288
309 308 308 308 309 309 309 310 310 310 310 308 302 301 302 311 313 305 295 291 293 302 301 301 295 297 293 296 296 296 295 300 300 300 299 296 292 300 302 301 298 297 299 291 289 284 282
308 309 308 308 308 309 308 309 310 310 309 307 301 301 310 313 311 301 291 291 296 301 301 299 296 295 298 295 296 294 297 302 303 300 301 297 294 294 297 295 296 295 292 294 292 291 287
307 308 308 307 308 308 309 309 309 309 307 304 301 298 311 312 299 297 293 295 299 300 304 301 299 297 298 297 298 296 297 301 305 301 296 297 293 289 293 298 300 296 295 294 289 288 293
307 308 308 308 307 307 308 309 309 309 306 300 299 301 312 306 292 291 295 299 301 300 301 301 299 300 300 296 297 302 301 306 306 301 297 298 292 287 290 292 299 298 296 295 294 293 293
307 307 307 307 307 307 307 308 308 308 308 301 301 299 307 305 300 295 296 297 298 303 302 305 301 300 298 296 301 301 306 309 306 305 314 305 293 292 289 292 297 298 299 300 297 293 294
307 307 307 307 306 307 307 308 308 307 308 302 300 299 306 297 299 299 300 300 299 299 302 305 302 299 297 293 297 304 309 309 312 314 302 299 294 294 295 298 299 299 300 301 298 297 296
308 308 307 307 306 306 307 307 308 308 308 300 299 302 303 302 302 300 299 298 299 302 298 301 299 302 301 294 300 302 307 305 306 308 298 299 294 297 295 299 300 300 305 304 303 302 300
309 308 307 307 306 306 306 306 308 308 307 301 302 304 303 299 302 300 300 300 302 304 304 302 302 300 302 301 309 311 309 309 308 305 303 298 295 293 291 299 300 295 302 304 303 304 305
308 307 307 306 306 306 305 306 307 308 308 301 303 300 298 294 299 300 301 302 301 302 303 308 309 303 308 312 311 309 306 308 308 307 306 300 294 292 290 295 287 296 307 308 305 306 307
308 307 307 306 306 306 305 305 306 308 309 301 301 299 300 294 299 300 301 301 302 304 305 307 310 311 310 307 302 300 300 300 303 307 305 302 297 294 292 290 296 304 305 303 301 301 307
308 307 307 306 306 306 305 305 305 307 307 301 301 304 300 295 294 301 299 302 298 299 302 307 310 309 310 305 303 294 294 298 299 302 306 304 299 296 295 291 291 301 308 311 306 298 307
308 308 307 306 306 306 306 305 305 305 307 301 299 304 301 297 299 300 301 299 304 301 299 303 302 304 312 301 299 296 297 304 297 296 297 300 299 295 294 294 299 305 310 311 297 300 307
308 308 307 307 306 306 306 305 305 305 306 300 297 302 302 297 297 301 304 301 302 302 295 299 303 304 303 303 302 301 301 302 301 302 301 298 297 296 297 294 293 309 309 303 305 303 308
307 307 307 307 307 307 306 305 305 304 305 303 294 306 307 301 297 301 304 307 307 307 301 301 301 304 306 301 302 303 303 302 300 297 306 300 302 302 300 299 306 308 309 311 309 309 309
Wind_Speed
9 9 9 9 9 9 9 10 10 10 11 12 13 15 16 18 19 20 21 21 21 20 20 18 15 15 5 4 9 1 12 12 8 7 6 5 5 5 4 5 4 4 2 3 11 13 9
11 10 10 10 10 10 10 10 10 11 11 12 13 15 17 18 19 21 21 24 22 22 18 18 14 9 2 4 3 8 11 9 7 6 7 6 8 6 3 4 6 3 6 4 9 8 8
9 10 10 11 11 11 10 10 10 11 11 12 13 15 17 20 21 20 21 22 23 24 21 19 11 4 2 14 3 7 9 6 8 6 6 5 3 3 1 3 3 5 9 6 6 4 5
11 10 9 9 11 11 11 11 11 11 12 12 13 15 18 20 22 22 23 24 26 25 24 14 8 4 8 5 5 7 3 3 5 4 1 6 2 2 5 1 7 5 7 6 2 5 4
12 11 11 11 11 11 11 11 11 11 12 13 13 15 18 19 23 25 25 28 29 16 7 11 6 3 9 1 4 6 6 4 6 4 4 3 2 3 3 5 5 6 6 4 1 5 4
11 14 11 11 10 10 11 11 11 11 12 13 14 15 17 19 22 25 27 29 17 3 3 5 3 2 4 3 3 6 4 3 4 6 4 4 3 3 4 3 6 6 6 2 6 9 8
10 12 12 11 13 11 11 11 9 10 10 13 14 16 17 18 22 22 17 8 7 5 3 5 5 5 5 6 1 5 6 6 2 4 5 3 5 6 9 4 5 7 7 8 6 7 5
12 11 11 12 12 11 11 9 9 9 10 13 14 16 19 20 23 22 2 4 6 1 11 10 15 11 12 3 4 2 8 5 5 5 3 4 6 8 4 3 2 4 6 4 4 3 4
11 12 11 10 11 10 10 10 10 10 11 12 14 15 18 21 26 3 3 5 4 1 4 9 8 8 6 11 8 7 12 7 5 5 4 6 3 7 6 4 4 4 6 5 5 3 3
10 11 10 10 10 9 9 10 12 12 13 13 14 15 15 23 4 5 5 6 9 2 3 9 6 9 7 8 4 9 13 8 3 9 7 4 4 5 4 5 7 3 8 4 4 4 5
10 10 10 8 8 8 10 11 12 13 13 14 14 15 13 8 4 4 7 13 13 3 4 4 5 1 9 11 5 4 6 5 8 6 8 8 6 5 5 7 6 10 8 8 6 5 4
9 9 9 9 9 8 8 10 12 13 13 14 15 14 13 1 2 9 10 13 2 6 9 5 7 7 6 6 3 5 6 4 5 5 2 9 1 5 8 6 8 2 1 7 6 4 1
9 9 9 9 9 8 9 10 12 13 14 15 17 17 9 2 6 1 6 4 5 4 5 4 4 4 9 8 8 4 8 7 7 6 4 1 6 4 4 2 2 6 7 4 5 2 8
9 8 9 9 8 9 9 9 12 14 15 16 17 21 8 7 4 2 4 4 4 4 6 5 4 4 8 6 8 5 6 6 3 5 4 7 4 8 3 9 7 7 11 8 8 5 7
10 9 9 10 8 9 10 10 12 14 16 17 19 3 4 5 9 3 5 2 7 4 5 7 9 4 2 4 6 5 9 7 9 9 7 6 6 4 6 7 13 5 4 6 5 2 3
10 8 8 8 9 9 10 10 13 15 17 18 4 4 5 3 12 5 4 5 5 3 8 4 2 3 8 8 6 10 9 8 6 11 7 7 1 4 2 5 2 8 8 3 3 2 5
10 10 8 7 7 8 9 11 13 15 18 11 1 4 3 9 3 5 4 7 4 6 7 5 3 5 2 5 9 6 10 9 12 10 15 7 5 4 3 3 7 2 2 5 6 6 7
12 11 9 8 7 7 8 9 11 13 18 3 3 2 3 4 4 2 3 5 3 3 2 6 3 5 3 6 3 9 11 11 16 12 13 8 6 5 9 6 4 6 7 8 6 7 2
12 12 10 8 7 7 8 9 10 11 8 3 3 3 3 4 2 2 5 3 2 4 3 4 4 2 3 4 4 5 6 17 11 14 14 10 4 2 9 5 1 5 5 5 4 5 8
13 12 11 10 7 7 7 8 9 10 9 0 2 2 2 2 1 3 1 3 4 6 6 7 6 6 3 4 2 4 4 3 11 19 10 14 4 10 11 8 5 5 5 6 6 4 4
14 14 11 11 9 7 7 7 8 10 10 1 1 2 2 2 1 2 2 2 4 4 4 4 3 4 5 4 5 3 4 6 7 6 8 9 9 7 8 8 4 3 2 5 7 7 7
15 14 13 11 9 7 5 6 7 10 10 0 1 2 4 2 3 2 1 3 4 7 5 5 4 7 3 5 6 4 2 1 1 5 4 2 5 8 6 6 7 4 4 0 5 2 4
16 15 14 11 9 7 5 5 7 9 6 1 2 2 1 4 3 2 2 4 8 12 8 10 11 7 8 4 9 7 5 3 3 1 2 5 7 5 8 4 7 1 3 2 4 3 5
18 16 15 12 10 8 5 4 5 6 4 1 1 1 1 4 3 2 5 7 9 12 8 6 6 3 2 13 10 3 4 5 7 7 5 6 6 3 4 3 4 7 2 4 5 3 4
20 17 16 13 11 9 6 4 4 4 5 1 1 1 1 2 3 7 8 4 10 8 5 4 3 3 11 8 3 3 6 5 4 5 6 4 6 4 6 4 4 2 5 7 5 4 3
21 19 17 14 12 10 7 5 4 3 5 1 2 2 1 1 3 3 4 3 4 5 7 4 5 8 5 1 4 3 2 4 4 1 5 7 7 6 3 5 7 10 3 3 3 4 8
21 19 17 16 13 11 8 6 4 2 4 1 2 1 1 2 2 2 2 2 4 4 4 5 9 9 6 2 3 2 3 3 2 4 3 3 3 6 3 3 6 7 5 3 6 11 4
21 19 17 15 14 12 9 7 4 1 3 2 3 3 3 2 5 4 2 2 3 2 2 6 2 3 5 6 3 3 2 2 4 3 4 3 4 3 3 4 3 5 4 8 8 3 3
20 18 16 15 13 12 10 8 5 2 1 3 1 1 1 2 5 3 5 9 11 7 0 3 3 3 3 4 4 2 3 3 2 1 4 2 3 4 6 6 4 5 5 6 2 3 4
Wind_Direction
291 290 293 299 303 311 316 319 321 322 323 324 323 324 321 320 319 319 314 313 311 312 310 311 309 313 346 9 252 136 133 139 125 147 164 152 136 149 184 202 176 177 155 1 128 132 129
289 287 290 293 296 301 305 308 313 316 319 320 320 320 319 318 318 318 318 315 311 307 304 305 307 312 352 280 193 147 123 136 144 140 158 161 188 191 233 226 158 166 71 69 121 125 146
328 344 317 283 286 291 297 301 307 311 313 316 317 318 319 317 317 319 318 312 305 301 304 297 281 221 200 238 67 147 139 172 159 163 150 206 190 123 73 201 184 145 88 78 40 115 143
336 325 322 332 289 284 289 293 302 306 309 312 314 316 317 317 317 318 314 310 303 303 301 288 200 188 244 248 141 143 182 176 159 198 209 153 212 226 165 229 37 65 56 92 262 119 184
327 324 323 312 309 302 290 290 297 303 308 312 315 317 317 319 319 317 317 310 301 305 303 127 130 187 263 86 168 184 155 191 144 156 225 215 186 190 77 96 52 10 139 133 132 223 148
331 328 333 332 327 331 306 289 291 302 312 317 320 321 320 322 321 319 321 305 294 292 135 205 252 323 272 203 190 162 185 166 148 149 180 165 74 107 55 94 172 176 122 217 181 212 202
331 330 332 343 344 343 331 321 306 311 318 325 326 324 324 325 318 322 335 350 11 7 330 252 209 260 290 334 280 183 165 137 113 84 155 198 110 179 201 206 160 137 134 176 229 187 170
331 330 337 344 343 347 348 350 349 339 341 325 325 325 325 325 317 320 293 40 109 255 297 253 246 250 250 49 293 292 114 148 131 183 149 54 202 200 148 173 100 146 163 216 259 154 212
325 329 337 339 337 339 346 347 346 343 330 320 323 325 328 326 313 4 258 229 35 24 239 280 213 222 196 154 203 244 166 151 135 159 172 155 227 151 166 172 153 201 178 219 215 35 78
319 329 331 335 336 335 344 339 340 333 324 322 323 324 334 332 39 328 281 319 322 223 10 270 223 248 170 161 243 203 170 142 137 184 144 229 251 163 156 216 149 227 210 202 178 101 236
311 320 331 326 331 340 342 339 331 329 324 321 321 323 332 324 281 321 281 329 318 94 328 220 201 291 150 151 165 202 169 70 152 162 120 234 203 176 187 217 135 233 139 184 177 180 127
298 308 320 329 329 333 330 324 326 324 320 320 318 320 330 76 239 245 316 302 48 57 251 297 160 166 118 148 193 125 126 75 148 125 84 211 221 159 200 225 180 269 68 48 53 100 188
287 298 309 318 324 331 329 322 322 322 318 317 315 310 302 236 241 187 338 5 63 181 324 309 193 168 162 169 203 125 154 159 155 143 198 317 266 260 163 223 30 90 67 328 337 2 229
278 290 302 309 318 324 325 329 320 319 317 314 310 307 244 207 226 249 16 63 198 238 261 331 7 113 185 126 219 147 131 180 232 118 150 170 277 193 198 174 178 182 163 169 213 208 248
267 283 297 304 321 324 325 328 320 320 317 315 315 293 268 248 183 129 88 132 210 224 337 335 323 129 239 204 144 135 172 193 194 173 164 143 253 248 195 181 151 204 177 195 138 29 79
263 264 287 301 312 319 324 327 322 322 318 318 294 321 261 198 150 92 92 239 254 282 334 324 359 2 195 196 152 161 169 204 212 178 153 207 269 227 212 115 130 156 167 97 5 150 228
247 256 269 289 304 311 321 328 326 325 324 324 282 328 245 149 143 58 186 231 285 285 359 350 330 301 277 182 184 174 205 234 197 182 176 144 136 288 83 166 188 86 218 54 123 139 171
238 247 260 269 288 308 316 324 326 335 331 46 318 299 356 122 92 157 211 200 325 315 353 285 238 240 247 326 273 192 207 212 183 150 177 186 163 227 222 242 190 165 201 157 145 253 183
231 241 248 254 271 295 308 319 330 343 11 323 338 277 295 125 172 246 286 291 284 302 260 278 285 266 42 288 286 208 211 236 165 167 170 169 208 83 340 1 146 198 194 180 132 96 196
222 233 240 248 258 279 297 312 329 337 340 18 292 317 293 61 358 156 113 271 252 258 256 238 247 245 276 284 258 297 278 338 174 195 159 142 129 177 210 202 178 172 192 170 144 124 179
215 225 230 237 245 261 285 309 331 326 325 133 253 273 6 303 79 10 196 297 293 296 269 282 251 224 302 266 332 296 300 352 36 71 144 135 188 170 220 213 210 259 262 167 188 215 159
206 217 219 225 241 258 276 300 324 322 340 93 286 350 342 291 292 305 117 259 281 290 234 267 207 298 321 237 215 234 293 66 153 352 97 8 212 166 233 206 210 231 220 178 214 208 244
199 207 210 214 231 246 254 298 323 337 346 328 313 334 262 307 317 226 104 350 311 337 256 230 289 325 318 259 302 230 234 214 188 302 120 140 134 108 233 173 179 251 202 183 256 258 162
193 197 201 208 219 230 234 277 315 340 19 199 298 79 47 279 294 23 355 338 323 303 284 299 289 199 291 324 270 216 255 280 159 231 180 140 108 105 189 83 223 239 203 161 162 223 180
189 194 198 203 211 215 221 250 297 331 360 51 312 69 344 274 338 294 346 335 320 314 265 262 331 314 316 296 60 30 346 354 280 174 199 148 123 94 129 157 271 286 193 173 162 251 240
189 191 194 196 202 202 209 229 269 326 353 76 254 153 143 308 228 331 312 349 329 329 308 304 325 315 344 336 72 122 188 250 292 112 87 86 82 107 123 139 189 230 199 174 90 294 224
187 185 191 192 195 198 205 216 235 311 354 87 281 197 96 275 262 337 345 357 319 308 269 310 336 341 354 39 80 127 226 242 10 347 2 56 36 136 136 146 284 247 192 187 91 236 188
183 181 186 188 190 195 197 204 206 259 355 83 264 221 155 237 271 247 278 277 306 285 3 302 292 331 330 59 41 342 30 3 46 1 333 189 139 150 92 92 245 345 37 153 222 202 155
176 177 180 183 186 188 188 194 196 220 10 96 315 350 189 234 248 284 254 254 240 251 122 293 293 296 23 36 26 312 327 2 118 291 340 326 201 174 159 215 239 247 229 273 218 194 166